Location: Unspecified
(0.0000°N, 0.0000°E)
Time: 09:41:40
(UTC+00:00)

MIDAS 4 DEB - Pass Details

Date: 15 November 2025
Orbit: 3271 x 3959 km, 95.8° (Epoch: 26 July)

Event Time Altitude Azimuth Distance (km) Brightness Sun altitude
Exits shadow 19:12:32 25° 77° (ENE) 5,534 ? -20.7°
Maximum altitude 19:18:54 29° 105° (ESE) 5,322 ? -22.2°
Drops below altitude 10° 19:34:13 10° 158° (SSE) 7,018 ? -25.8°
Sets 19:39:55 0° 168° (SSE) 8,103 ? -27.2°
